SIILIN Weather Reports


Display with metric or nautical units.
time (UTC)temp
F
wind
direction
speed
MPH
gust
MPH
rain 1hr
in
rain 24hr
in
rain mn
in
humidity
%
barometer
mb
20260507064726 40 314 3.0 4.0 0.00 0.00 0.00 57 1016.7
20260507062726 39 345 3.0 5.0 0.00 0.00 0.00 62 1016.7
20260507060726 39 4 3.0 4.0 0.00 0.00 0.00 64 1016.6
20260507054726 38 344 3.0 4.0 0.00 0.00 0.00 71 1016.5
20260507052726 39 80 2.0 3.0 0.00 0.00 0.00 64 1016.4
20260507050725 37 33 1.0 2.0 0.00 0.00 0.00 69 1016.6
20260507044725 36 30 2.0 3.0 0.00 0.00 0.00 68 1016.8
20260507042725 36 65 3.0 4.0 0.00 0.00 0.00 71 1016.6
20260507040726 36 57 4.0 5.0 0.00 0.00 0.00 73 1016.6
20260507034726 36 54 4.0 5.0 0.00 0.00 0.00 73 1016.7
20260507032726 35 69 3.0 4.0 0.00 0.00 0.00 80 1016.6
20260507030726 35 51 2.0 4.0 0.00 0.00 0.00 86 1016.6
20260507024725 35 73 2.0 3.0 0.00 0.00 0.00 87 1016.6
20260507022726 35 78 3.0 4.0 0.00 0.00 0.00 88 1016.5
20260507020725 35 74 4.0 5.0 0.00 0.00 0.00 86 1016.3
20260507014725 36 70 4.0 5.0 0.00 0.00 0.00 87 1016.2
20260507012725 36 75 3.0 4.0 0.00 0.00 0.00 87 1016.1
20260507010725 37 347 2.0 3.0 0.00 0.00 0.00 81 1016.0
20260507004725 37 330 2.0 4.0 0.00 0.00 0.00 80 1015.9
20260507002725 37 356 3.0 4.0 0.00 0.00 0.00 76 1015.9
20260507000725 37 354 2.0 3.0 0.00 0.00 0.00 75 1015.8
20260506234725 38 334 2.0 2.0 0.00 0.00 0.00 70 1015.6
20260506232725 38 287 2.0 3.0 0.00 0.00 0.00 66 1015.5
20260506230726 38 309 2.0 4.0 0.00 0.00 0.00 60 1015.4
20260506224724 38 301 3.0 4.0 0.00 0.00 0.00 66 1015.3
20260506222725 39 317 3.0 4.0 0.00 0.00 0.00 65 1015.3
20260506220725 39 329 4.0 6.0 0.00 0.00 0.00 58 1015.1
20260506214725 40 311 3.0 4.0 0.00 0.00 0.00 53 1015.0
20260506212725 40 249 3.0 4.0 0.00 0.00 0.00 58 1014.9
20260506210724 41 243 4.0 5.0 0.00 0.00 0.00 51 1014.8
20260506204724 41 273 4.0 7.0 0.00 0.00 0.00 51 1014.7
20260506202724 42 290 7.0 9.0 0.00 0.00 0.00 41 1014.7
20260506200725 42 285 7.0 9.0 0.00 0.00 0.00 43 1014.6
20260506194724 43 287 7.0 9.0 0.00 0.00 0.00 42 1014.6
20260506192724 43 281 8.0 10.0 0.00 0.00 0.00 44 1014.6
20260506190724 44 268 8.0 10.0 0.00 0.00 0.00 44 1014.4
20260506184723 45 264 9.0 11.0 0.00 0.00 0.00 38 1014.3
20260506182725 45 257 10.0 11.0 0.00 0.00 0.00 44 1014.1
20260506180724 45 252 10.0 12.0 0.00 0.00 0.00 44 1013.9
20260506174724 46 247 11.0 13.0 0.00 0.00 0.00 36 1013.7
20260506172723 46 248 12.0 14.0 0.00 0.00 0.00 39 1013.6
20260506170723 46 270 10.0 13.0 0.00 0.00 0.00 44 1013.5
20260506164723 46 252 11.0 17.0 0.00 0.00 0.00 39 1013.3
20260506160723 46 256 13.0 18.0 0.00 0.00 0.00 30 1013.3
20260506154724 47 274 12.0 19.0 0.00 0.00 0.00 31 1013.4
20260506152723 46 275 14.0 20.0 0.00 0.00 0.00 34 1013.3
20260506150723 46 254 17.0 22.0 0.00 0.00 0.00 31 1013.2
20260506144722 46 271 13.0 18.0 0.00 0.00 0.00 32 1013.3
20260506142723 47 268 15.0 20.0 0.00 0.00 0.00 27 1013.2
20260506140722 47 273 15.0 23.0 0.00 0.00 0.00 24 1013.2
20260506134723 46 272 19.0 26.0 0.00 0.00 0.00 29 1013.1
20260506132722 47 267 13.0 19.0 0.00 0.00 0.00 28 1013.0
20260506130722 46 263 16.0 20.0 0.00 0.00 0.00 36 1012.8
20260506124722 47 284 17.0 24.0 0.00 0.00 0.00 28 1012.8
20260506122722 46 263 13.0 22.0 0.00 0.00 0.00 35 1012.7
20260506120722 46 247 18.0 25.0 0.00 0.00 0.00 29 1012.6
20260506114723 46 274 19.0 27.0 0.00 0.00 0.00 31 1012.5
20260506112723 46 263 18.0 26.0 0.00 0.00 0.00 36 1012.4
20260506110722 46 238 17.0 21.0 0.00 0.00 0.00 31 1012.3
20260506104724 46 256 16.0 29.0 0.00 0.00 0.00 33 1012.3
20260506102724 45 273 20.0 26.0 0.00 0.00 0.00 31 1012.2
20260506100724 45 250 17.0 26.0 0.00 0.00 0.00 31 1012.0
20260506094724 45 248 20.0 28.0 0.00 0.00 0.00 34 1011.7
20260506092723 44 263 20.0 25.0 0.00 0.00 0.00 37 1011.7
20260506090723 44 260 19.0 26.0 0.00 0.00 0.00 38 1011.6
20260506084724 44 242 16.0 22.0 0.00 0.00 0.00 40 1011.6
20260506082724 44 259 16.0 26.0 0.00 0.00 0.00 42 1011.5
20260506080723 43 272 17.0 25.0 0.00 0.00 0.00 41 1011.5
20260506072724 42 253 16.0 23.0 0.00 0.00 0.00 49 1011.2
20260506070723 42 261 19.0 24.0 0.00 0.00 0.00 43 1010.9